Flag for Hong Kong Weather past 2 weeks in Hong Kong, Hong Kong

Now
84 °F

Passing clouds.


Feels Like: 94 °F
Forecast: 82 / 87 °F
Wind: 6 mph from Southeast

Location: National Airport

Current Time: Aug 31, 2014 at 6:19:41 AM

Latest Report: Aug 31, 2014 at 6:00 AM


Visibility: N/A

Pressure: 29.77 "Hg

Humidity: 79%

Dew point: 77 °F

Location of Hong KongLocation

Historic Weather in Hong Kong — Graph

°F

Hong Kong temperature yesterday

Maximum temperature yesterday: 95 °F (at 2:00 PM)
Minimum temperature yesterday: 82 °F (at 6:00 AM)
Average temperature yesterday: 88 °F

Past Weeks' High & Low Weather Summary

 TemperatureHumidityPressure
High95 °F (Aug 30, 2:00 PM)94% (Aug 19, 2:30 PM)29.95 "Hg (Aug 19, 2:30 PM)
Low75 °F (Aug 20, 5:30 AM)47% (Aug 30, 2:00 PM)29.68 "Hg (Aug 17, 3:30 PM)
Average86 °F72%29.82 "Hg
* Reported Aug 16 5:00 AM — Aug 31 5:30 AM, Hong Kong, Weather by CustomWeather, © 2014

Note: Actual official high and low records may vary slightly from our data, if they occured in-between our weather recording intervals... More about our weather records

Advertising

Hong Kong weather history for previous 24 hours

 ConditionsComfort  
Time TempWeatherWind HumidityBarometerVisibility
5:30 AM
Aug 31
84 °FPassing clouds.7 mph79%29.77 "HgN/A
5:00 AM84 °FPassing clouds.7 mph79%29.77 "HgN/A
4:30 AM84 °FPassing clouds.7 mph79%29.77 "HgN/A
4:00 AM84 °FPassing clouds.7 mph79%29.80 "HgN/A
3:30 AM84 °FPassing clouds.5 mph79%29.80 "HgN/A
3:00 AM84 °FPassing clouds.5 mph79%29.80 "HgN/A
2:00 AM84 °FPassing clouds.10 mph79%29.83 "HgN/A
1:30 AM84 °FPassing clouds.12 mph79%29.83 "HgN/A
1:00 AM86 °FPassing clouds.12 mph75%29.83 "HgN/A
12:30 AM86 °FPassing clouds.10 mph75%29.83 "HgN/A
12:00 AM86 °FPassing clouds.9 mph75%29.83 "HgN/A
11:30 PM
Aug 30
86 °FPassing clouds.10 mph75%29.86 "HgN/A
11:00 PM86 °FPassing clouds.13 mph75%29.86 "HgN/A
10:30 PM86 °FPassing clouds.10 mph70%29.86 "HgN/A
10:00 PM86 °FPassing clouds.12 mph75%29.86 "HgN/A
9:30 PM86 °FPassing clouds.12 mph75%29.86 "HgN/A
9:00 PM86 °FPassing clouds.12 mph79%29.83 "HgN/A
8:30 PM86 °FPassing clouds.10 mph75%29.83 "HgN/A
8:00 PM86 °FPassing clouds.12 mph75%29.83 "HgN/A
7:30 PM88 °FPassing clouds.13 mph70%29.80 "HgN/A
7:00 PM88 °FPassing clouds.14 mph70%29.80 "HgN/A
6:30 PM90 °FPassing clouds.12 mph63%29.80 "HgN/A
6:00 PM90 °FPassing clouds.14 mph59%29.80 "HgN/A
5:30 PM91 °FPassing clouds.15 mph56%29.77 "HgN/A
5:00 PM91 °FPassing clouds.13 mph56%29.77 "HgN/A
4:30 PM91 °FPassing clouds.13 mph56%29.77 "HgN/A
4:00 PM93 °FPassing clouds.13 mph53%29.80 "HgN/A
3:30 PM91 °FPassing clouds.12 mph52%29.80 "HgN/A
3:00 PM93 °FPassing clouds.12 mph49%29.80 "HgN/A
2:30 PM93 °FPassing clouds.9 mph49%29.80 "HgN/A
2:00 PM95 °FPassing clouds.12 mph47%29.83 "HgN/A
1:30 PM93 °FPassing clouds.13 mph49%29.83 "HgN/A
1:00 PM93 °FPassing clouds.10 mph49%29.83 "HgN/A
12:30 PM93 °FPassing clouds.9 mph49%29.86 "HgN/A
12:00 PM93 °FPassing clouds.10 mph49%29.86 "HgN/A
11:30 AM91 °FPassing clouds.5 mph52%29.86 "HgN/A
11:00 AM91 °FPassing clouds.5 mph56%29.86 "HgN/A
10:30 AM91 °FPassing clouds.7 mph56%29.89 "HgN/A
10:00 AM90 °FPassing clouds.5 mph59%29.89 "HgN/A
9:30 AM88 °FPassing clouds.6 mph62%29.89 "HgN/A
9:00 AM88 °FPassing clouds.3 mph62%29.89 "HgN/A
8:30 AM86 °FPassing clouds.6 mph66%29.89 "HgN/A
8:00 AM88 °FPassing clouds.6 mph62%29.89 "HgN/A
7:30 AM86 °FPassing clouds.5 mph70%29.89 "HgN/A
7:00 AM84 °FPassing clouds.6 mph70%29.89 "HgN/A
6:30 AM84 °FPassing clouds.7 mph74%29.89 "HgN/A
6:00 AM82 °FPassing clouds.7 mph79%29.86 "HgN/A
Weather by CustomWeather, © 2014

See weather overviewHow to use our weather pages